#timestamp,LO_Frequency,Hit,StdDev 
1660698015.7,286047001.6,N
1660698035.6,286047002.2,N
1660698055.4,286047002.6,N
1660698075.2,286047001.4,N
1660698095.1,286047001.6,N
1660698096.0,286047001.6,N
1660698115.8,286047002.1,N
1660698135.6,286047001.9,N
1660698155.5,286047001.6,N
1660698175.3,286047001.7,N
1660698195.2,286047001.3,N
1660698215.9,286047003.9,Y
1660698235.7,286047002.8,P
1660698255.6,286047002.3,P
1660698275.4,286047002.3,P
1660698295.2,286047001.9,Y
1660698315.1,286047000.0,P
1660698316.0,286047000.0,N
1660698335.8,286046999.8,N
1660698355.7,286047000.4,N
1660698375.5,286047000.8,N
1660698395.3,286047000.5,N
1660698415.2,286047000.8,N
1660698435.0,286046998.4,N
1660698435.9,286046998.4,N
1660698455.8,286046998.7,N
1660698475.6,286046998.9,N
1660698495.4,286046998.3,N
1660698515.3,286047001.2,N
1660698535.1,286047001.2,N
1660698555.9,286047000.4,N
1660698575.7,286047000.2,N
1660698595.5,286046998.3,N
1660698615.4,286047001.1,N
1660698635.2,286046999.7,N
1660698655.0,286047000.2,N
1660698655.9,286047000.2,N
1660698675.8,286046999.8,N
1660698695.6,286047002.6,N
1660698715.5,286047000.5,N
1660698735.3,286047000.6,N
1660698755.1,286047000.6,N
1660698775.9,286047000.9,N
1660698795.7,286047000.7,N
1660698815.5,286047000.6,N
1660698835.4,286047000.8,N
1660698855.2,286047000.3,N
1660698875.1,286047001.1,N
1660698876.0,286047001.1,N
1660698895.8,286046998.7,N
1660698915.6,286046998.3,N
1660698935.5,286046998.6,N
1660698955.3,286047000.6,N
1660698975.2,286047000.2,N
1660698995.9,286047000.3,N
1660699015.7,286047002.4,N
1660699035.6,286047001.1,N
1660699055.4,286047000.9,N
1660699075.2,286047002.4,N
1660699095.1,286046999.8,N
1660699096.0,286046999.8,N
1660699115.8,286047002.5,N
1660699135.7,286047001.0,N
1660699155.5,286047000.0,N
1660699175.3,286046999.9,N
1660699195.2,286047002.8,N
1660699215.0,286047002.2,N
1660699215.9,286047002.2,N
1660699235.7,286047002.5,N
1660699255.6,286047001.4,N
1660699275.4,286047001.6,N
1660699295.3,286047001.5,N
1660699315.1,286047001.5,N
1660699316.0,286047001.5,N
1660699335.8,286047004.0,Y
1660699355.7,286047001.3,P
1660699375.5,286047003.4,P
1660699395.3,286047003.4,P
1660699415.2,286047004.2,Y
1660699435.0,286047002.4,P
1660699435.9,286047002.4,P
1660699455.8,286047002.0,P
1660699475.6,286047004.4,Y
1660699495.4,286047002.7,P
1660699515.3,286047000.2,N
1660699535.1,286047000.7,N
1660699555.9,286047000.7,N
1660699575.7,286046998.6,N
1660699595.5,286046998.2,N
1660699645.4,286047000.8,E
1660699655.3,286047001.1,N
1660699675.2,286046998.3,P
1660699695.9,286046999.0,N
1660699715.7,286046998.9,N
1660699735.6,286046998.5,N
1660699755.4,286046998.6,N
1660699775.2,286047001.2,N
1660699795.1,286046998.7,N
1660699796.0,286046998.7,N
1660699815.8,286046998.8,N
1660699835.7,286046998.1,N
1660699855.5,286046998.4,N
1660699875.3,286046998.7,N
1660699895.2,286047001.2,N
1660699915.0,286047000.9,N
1660699915.9,286047000.9,N
1660699935.8,286047000.8,N
1660699955.6,286046998.1,N
1660699975.4,286046996.5,N
1660699995.3,286046999.1,N
1660700015.1,286046998.2,N
1660700035.8,286046998.7,N
1660700055.7,286046998.8,N
1660700075.5,286046998.3,N
1660700095.4,286046999.0,N
1660700115.2,286047001.1,N
1660700135.0,286047000.2,N
1660700135.9,286047000.2,N
1660700155.8,286047000.9,N
1660700175.6,286046998.5,N
1660700195.4,286047000.8,N
1660700215.3,286046998.9,N
1660700235.1,286046998.6,N
1660700255.9,286046999.3,N
1660700275.7,286046998.9,N
1660700295.5,286047001.2,N
1660700315.4,286046998.1,N
1660700335.2,286047000.8,N
1660700355.1,286047001.1,N
1660700356.0,286047001.1,N
1660700375.8,286047000.8,N
1660700395.6,286047000.7,N
1660700415.5,286047001.0,N
1660700435.3,286046999.1,N
1660700455.1,286046996.7,N
1660700475.9,286046999.3,N
1660700495.7,286046998.5,N
1660700515.6,286046999.1,N
1660700535.4,286046999.1,N
1660700555.2,286046997.2,N
1660700575.1,286046999.2,N
1660700576.0,286046999.2,N
1660700595.8,286046998.7,N
1660700615.7,286046998.5,N
1660700635.5,286046998.4,N
1660700655.3,286046998.6,N
1660700675.2,286046998.1,N
1660700695.9,286047000.5,N
1660700715.7,286046998.4,N
1660700735.6,286046996.5,N
1660700755.4,286046998.8,N
1660700775.3,286046999.4,N
1660700795.1,286046998.5,N
1660700796.0,286046998.5,N
1660700815.8,286046998.2,N
1660700835.7,286047001.1,N
1660700855.5,286046999.4,N
1660700875.3,286046996.8,N
1660700895.2,286046996.0,Y
1660700915.0,286046995.0,P
1660700915.9,286046995.0,N
1660700935.8,286046995.4,N
1660700955.6,286046993.4,Y
1660700975.4,286046996.7,P
1660700995.3,286046996.8,P
1660701015.1,286046997.0,P
1660701035.9,286046997.2,Y
1660701055.7,286047001.2,P
1660701075.5,286046998.8,N
1660701095.4,286046999.3,N
1660701115.2,286046999.4,N
1660701135.0,286046997.0,N
1660701135.9,286046997.0,N
1660701155.8,286046996.7,N
1660701175.6,286046997.2,N
1660701195.5,286046997.7,N
1660701215.3,286046997.6,N
1660701235.1,286046998.0,N
1660701255.9,286046995.2,Y
1660701275.7,286046998.5,P
1660701295.5,286046998.6,P
1660701315.4,286046998.6,P
1660701335.2,286046998.3,Y
1660701355.1,286047000.2,P
1660701356.0,286047000.2,N
1660701375.8,286047000.3,N
1660701395.6,286047000.6,N
1660701415.5,286047000.2,N
1660701435.3,286046999.9,N
1660701455.2,286047000.6,N
1660701475.9,286047001.0,N
1660701495.7,286047000.9,N
1660701515.6,286047000.9,N
1660701535.4,286047000.6,N
1660701555.2,286047002.4,Y
1660701575.1,286047002.4,P
1660701576.0,286047002.4,N
1660701595.8,286047002.8,N
